FW4383 Weather Reports


Display with metric or nautical units.
time (UTC)temp
F
wind
direction
speed
MPH
gust
MPH
rain 1hr
in
rain 24hr
in
rain mn
in
humidity
%
barometer
mb
20260905000032 64 275 2.0 5.0 0.00 0.00 0.00 67 1016.3
20260904233034 64 242 1.0 5.0 0.00 0.00 0.00 67 1016.3
20260904231536 64 222 1.0 4.0 0.00 0.00 0.00 67 1016.2
20260904224534 66 209 0.0 6.0 0.00 0.00 0.00 61 1016.2
20260904223033 67 243 1.0 4.0 0.00 0.00 0.00 60 1016.0
20260904221643 67 305 1.0 4.0 0.00 0.00 0.00 64 1015.9
20260904214538 64 127 1.0 4.0 0.00 0.00 0.00 70 1015.9
20260904213032 64 180 0.0 2.0 0.00 0.00 0.00 66 1015.8
20260904210034 65 180 0.0 2.0 0.00 0.00 0.00 69 1015.8
20260904203110 64 324 0.0 3.0 0.00 0.00 0.00 68 1016.0
20260904194536 64 314 0.0 3.0 0.00 0.00 0.00 70 1016.3
20260904191537 64 28 1.0 4.0 0.00 0.00 0.00 72 1016.5
20260904190036 61 88 1.0 4.0 0.00 0.00 0.00 75 1016.6
20260904184535 59 143 0.0 3.0 0.00 0.00 0.00 76 1016.7
20260904183037 58 191 0.0 4.0 0.00 0.00 0.00 80 1016.7
20260904180035 57 126 1.0 4.0 0.00 0.00 0.00 82 1016.5
20260904174535 58 206 0.0 3.0 0.00 0.00 0.00 82 1016.6
20260904173036 58 225 0.0 1.0 0.00 0.00 0.00 81 1016.6
20260904170035 58 143 1.0 4.0 0.00 0.00 0.00 86 1016.5
20260904164535 57 146 1.0 4.0 0.00 0.00 0.00 87 1016.4
20260904163037 56 127 0.0 3.0 0.00 0.00 0.00 87 1016.5
20260904161533 56 85 0.0 1.0 0.00 0.00 0.00 89 1016.5
20260904154534 54 224 0.0 2.0 0.00 0.00 0.00 94 1016.5
20260904153143 53 265 0.0 2.0 0.00 0.00 0.00 96 1016.4
20260904151605 52 135 0.0 2.0 0.00 0.00 0.00 97 1016.3
20260904150035 51 135 0.0 3.0 0.00 0.00 0.00 96 1016.2
20260904144535 51 135 0.0 2.0 0.00 0.00 0.00 96 1016.0
20260904143038 50 135 0.0 2.0 0.00 0.00 0.00 96 1015.9
20260904141532 50 135 0.0 0.0 0.00 0.00 0.00 96 1015.7
20260904133036 50 135 0.0 0.0 0.00 0.00 0.00 95 1015.3
20260904131607 50 135 0.0 0.0 0.00 0.00 0.00 95 1015.2
20260904130031 50 135 0.0 0.0 0.00 0.00 0.00 95 1015.0
20260904124535 50 135 0.0 0.0 0.00 0.00 0.00 95 1015.0
20260904121536 50 135 0.0 0.0 0.00 0.00 0.00 95 1014.8
20260904113035 50 135 0.0 0.0 0.00 0.00 0.00 95 1014.6
20260904104536 50 135 0.0 0.0 0.00 0.00 0.00 95 1014.2
20260904103035 50 135 0.0 0.0 0.00 0.00 0.00 95 1014.0
20260904100034 49 135 0.0 2.0 0.00 0.00 0.00 95 1013.8
20260904094605 49 135 0.0 0.0 0.00 0.01 0.00 94 1013.7
20260904093034 49 135 0.0 0.0 0.00 0.01 0.00 94 1013.7
20260904091532 49 135 0.0 0.0 0.00 0.01 0.00 94 1013.7
20260904090035 49 135 0.0 2.0 0.00 0.01 0.00 94 1013.6
20260904083036 50 135 0.0 0.0 0.00 0.01 0.00 94 1013.4
20260904081536 50 135 0.0 0.0 0.00 0.01 0.00 94 1013.4
20260904080105 50 135 0.0 1.0 0.00 0.01 0.00 93 1013.5
20260904074606 50 135 0.0 3.0 0.00 0.01 0.00 93 1013.5
20260904073032 51 135 0.0 0.0 0.00 0.01 0.00 93 1013.5
20260904071619 51 135 0.0 0.0 0.00 0.01 0.00 92 1013.4
20260904070033 51 135 0.0 1.0 0.00 0.01 0.00 92 1013.3
20260904064606 51 165 0.0 3.0 0.00 0.01 0.01 92 1013.3
20260904063036 51 247 0.0 0.0 0.00 0.01 0.01 91 1013.3
20260904061536 52 247 0.0 0.0 0.00 0.01 0.01 91 1013.2
20260904060036 53 247 0.0 0.0 0.00 0.01 0.01 91 1013.2
20260904054536 53 258 0.0 4.0 0.00 0.01 0.01 90 1013.2
20260904053031 53 137 0.0 2.0 0.00 0.01 0.01 89 1013.2
20260904051642 53 135 0.0 0.0 0.00 0.01 0.01 88 1013.2
20260904050030 53 135 0.0 1.0 0.00 0.01 0.01 88 1013.3
20260904044604 54 101 0.0 2.0 0.00 0.01 0.01 87 1013.3
20260904043032 54 352 0.0 0.0 0.00 0.01 0.01 85 1013.2
20260904041531 55 337 0.0 0.0 0.00 0.01 0.01 83 1013.2
20260904034532 55 223 0.0 6.0 0.00 0.01 0.01 82 1013.2
20260904033034 55 220 1.0 5.0 0.00 0.01 0.01 83 1013.0
20260904031535 57 247 0.0 0.0 0.00 0.01 0.01 81 1012.8
20260904030030 57 265 1.0 7.0 0.00 0.01 0.01 80 1012.8
20260904024535 58 287 1.0 4.0 0.00 0.01 0.01 80 1012.7
20260904023030 58 280 2.0 6.0 0.00 0.03 0.01 79 1012.5
20260904021534 58 306 1.0 5.0 0.00 0.04 0.01 78 1012.5
20260904020035 58 279 2.0 6.0 0.00 0.06 0.01 77 1012.5
20260904014534 59 289 3.0 9.0 0.00 0.16 0.01 76 1012.4
20260904013033 60 273 4.0 10.0 0.00 0.16 0.01 73 1012.4
20260904011535 61 271 4.0 8.0 0.00 0.16 0.01 71 1012.4
20260904010035 63 297 3.0 6.0 0.00 0.17 0.01 68 1012.3